カタログに戻る

STARLINK-4477

運用中通信VLEO
NORAD 53546·PAYLOAD·🇺🇸 United States

打ち上げ Aug 19, 2022 から Cape Canaveral Space Force Station

Loading…

次のパス (今後24時間)

TLE

最新Source: CelesTrak SupGP

元期: Sep 14, 2026, 13:40 UTC

1 53546C 22101V   26257.56993056  .00004788  00000+0  14148-3 0  2578
2 53546  53.1570 271.1050 0001265  74.3034 357.9586 15.34385081    19

AllMySatでSTARLINK-4477をリアルタイム追跡

Download on the App Store